Location: Ailly
(50.0793°N, 1.9944°E)
Time: 20:36:47
(UTC+00:00)

Cosmos 1408 Rocket - Pass Details

Date: 15 January 2026
Orbit: 594 x 623 km, 82.6° (Epoch: 14 February)

Event Time Altitude Azimuth Distance (km) Brightness Sun altitude
Rises 06:18:16 0° 216° (SW) 2,861 6.8 -13.4°
Reaches altitude 10° 06:20:42 10° 227° (SW) 1,957 5.8 -13.1°
Maximum altitude 06:24:31 30° 289° (WNW) 1,091 4.2 -12.5°
Drops below altitude 10° 06:28:22 10° 351° (N) 1,955 5.9 -11.9°
Sets 06:30:48 0° 3° (N) 2,859 6.8 -11.5°
